SWR9EB LSZH-LEPA

Flight info

Callsign SWR9EB
Flight time N/A
Altitude 33000
Route VEBIT T50 ROTOS Z669 ULMES DCT VADAR DCT GEVEA DCT INCUS DCT BALSI DCT RETNO DCT TUPOX DCT MTG DCT DIVKO DCT VATIR DCT PIVUS DCT BODEQ DCT VERSO L129 LUNIK
Aircraft A321/M-SDE3FGHIRWY/LB1

Departure

Time 2026-05-06 09:02
Airport Zürich Airport (LSZH)

Arrival

Time N/A
Airport Palma de Mallorca Airport (LEPA)
Time Latitude Longitude Altitude Speed Heading
2026-05-06 08:29 47.45436 8.55635 1407 ft 0 kts 186°
2026-05-06 08:52 47.45437 8.55635 1407 ft 2 kts 186°
2026-05-06 08:53 47.45462 8.55641 1415 ft 4 kts 188°
2026-05-06 08:53 47.45484 8.55640 1407 ft 3 kts 160°
2026-05-06 08:53 47.45507 8.55624 1414 ft 4 kts 134°
2026-05-06 08:53 47.45519 8.55593 1409 ft 2 kts 97°
2026-05-06 08:54 47.45520 8.55589 1407 ft 1 kts 96°
2026-05-06 08:57 47.45519 8.55596 1407 ft 0 kts 96°
2026-05-06 08:57 47.45518 8.55614 1416 ft 7 kts 95°
2026-05-06 08:57 47.45510 8.55720 1415 ft 11 kts 96°
2026-05-06 08:57 47.45503 8.55822 1414 ft 9 kts 96°
2026-05-06 08:58 47.45495 8.55930 1413 ft 13 kts 96°
2026-05-06 08:58 47.45486 8.56057 1407 ft 12 kts 96°
2026-05-06 08:58 47.45480 8.56208 1408 ft 18 kts 76°
2026-05-06 08:58 47.45545 8.56336 1414 ft 13 kts 51°
2026-05-06 08:59 47.45591 8.56431 1414 ft 11 kts 70°
2026-05-06 08:59 47.45587 8.56574 1418 ft 15 kts 97°
2026-05-06 08:59 47.45578 8.56709 1423 ft 11 kts 98°
2026-05-06 08:59 47.45568 8.56849 1420 ft 16 kts 96°
2026-05-06 09:00 47.45568 8.56972 1421 ft 12 kts 69°
2026-05-06 09:00 47.45620 8.57019 1425 ft 9 kts
2026-05-06 09:00 47.45666 8.56944 1424 ft 12 kts 279°
2026-05-06 09:00 47.45667 8.56927 1424 ft 0 kts 276°
2026-05-06 09:01 47.45679 8.56757 1421 ft 50 kts 276°
2026-05-06 09:01 47.45741 8.55896 1410 ft 115 kts 276°
2026-05-06 09:01 47.45845 8.54459 1435 ft 160 kts 276°
2026-05-06 09:02 47.45959 8.52888 2153 ft 150 kts 277°
2026-05-06 09:02 47.46068 8.51338 2767 ft 154 kts 276°
2026-05-06 09:02 47.46183 8.49650 2985 ft 174 kts 276°
2026-05-06 09:02 47.46170 8.47765 3163 ft 196 kts 254°
2026-05-06 09:03 47.45322 8.46095 3372 ft 216 kts 217°
2026-05-06 09:03 47.44074 8.44808 3843 ft 221 kts 222°
2026-05-06 09:03 47.43060 8.43122 4499 ft 220 kts 235°
2026-05-06 09:03 47.42139 8.41231 4838 ft 237 kts 235°
2026-05-06 09:04 47.41139 8.39150 5115 ft 259 kts 236°
2026-05-06 09:04 47.40089 8.36950 5737 ft 265 kts 234°
2026-05-06 09:04 47.39026 8.34697 6411 ft 270 kts 237°
2026-05-06 09:04 47.38095 8.32262 7078 ft 274 kts 240°
2026-05-06 09:05 47.37202 8.29774 7861 ft 274 kts 242°
2026-05-06 09:05 47.36319 8.27265 8615 ft 277 kts 242°
2026-05-06 09:05 47.35430 8.24729 9358 ft 280 kts 241°
2026-05-06 09:05 47.34531 8.22167 10030 ft 283 kts 241°
2026-05-06 09:06 47.33593 8.19513 10252 ft 304 kts 241°
2026-05-06 09:06 47.32574 8.16651 10381 ft 326 kts 241°
2026-05-06 09:06 47.31490 8.13613 10652 ft 341 kts 241°
2026-05-06 09:06 47.30378 8.10491 11197 ft 346 kts 241°
2026-05-06 09:07 47.29254 8.07338 11838 ft 349 kts 242°
2026-05-06 09:07 47.28122 8.04159 12495 ft 352 kts 242°
2026-05-06 09:07 47.26983 8.00945 13162 ft 356 kts 243°
2026-05-06 09:07 47.26009 7.97573 13785 ft 360 kts 247°
2026-05-06 09:08 47.25060 7.94148 14359 ft 363 kts 246°
2026-05-06 09:08 47.24097 7.90689 14944 ft 366 kts 246°
2026-05-06 09:08 47.23126 7.87214 15533 ft 369 kts 246°
2026-05-06 09:08 47.22144 7.83712 16101 ft 372 kts 246°
2026-05-06 09:09 47.21149 7.80185 16682 ft 375 kts 245°
2026-05-06 09:09 47.20142 7.76631 17252 ft 378 kts 245°
2026-05-06 09:09 47.19052 7.73109 17817 ft 380 kts 238°
2026-05-06 09:09 47.17580 7.69893 18336 ft 380 kts 229°
2026-05-06 09:10 47.15928 7.66847 18820 ft 383 kts 229°
2026-05-06 09:10 47.14267 7.63784 19341 ft 384 kts 230°
2026-05-06 09:10 47.12601 7.60702 19837 ft 386 kts 229°
2026-05-06 09:10 47.10951 7.57645 20351 ft 388 kts 229°
2026-05-06 09:11 47.09269 7.54536 20872 ft 390 kts 229°
2026-05-06 09:11 47.07580 7.51412 21350 ft 392 kts 229°
2026-05-06 09:11 47.05879 7.48267 21813 ft 394 kts 229°
2026-05-06 09:11 47.04175 7.45123 22282 ft 395 kts 229°
2026-05-06 09:12 47.02456 7.41960 22735 ft 398 kts 229°
2026-05-06 09:12 47.00722 7.38778 23215 ft 401 kts 229°
2026-05-06 09:12 46.98961 7.35562 23493 ft 408 kts 228°
2026-05-06 09:12 46.97175 7.32310 23839 ft 411 kts 228°
2026-05-06 09:13 46.95379 7.29042 24259 ft 412 kts 228°
2026-05-06 09:13 46.93583 7.25766 24680 ft 413 kts 228°
2026-05-06 09:13 46.91784 7.22481 25126 ft 414 kts 228°
2026-05-06 09:13 46.89982 7.19191 25622 ft 414 kts 228°
2026-05-06 09:14 46.88179 7.15905 26079 ft 414 kts 227°
2026-05-06 09:14 46.86373 7.12618 26525 ft 415 kts 227°
2026-05-06 09:14 46.84563 7.09329 26948 ft 415 kts 227°
2026-05-06 09:14 46.82749 7.06042 27358 ft 416 kts 227°
2026-05-06 09:15 46.80934 7.02758 27764 ft 416 kts 227°
2026-05-06 09:15 46.79116 6.99473 28141 ft 416 kts 227°
2026-05-06 09:15 46.77293 6.96184 28527 ft 417 kts 227°
2026-05-06 09:15 46.75471 6.92900 28902 ft 417 kts 227°
2026-05-06 09:16 46.73649 6.89614 29321 ft 418 kts 227°
2026-05-06 09:16 46.71816 6.86310 29569 ft 420 kts 227°
2026-05-06 09:16 46.69976 6.82999 29951 ft 420 kts 227°
2026-05-06 09:16 46.68140 6.79703 30351 ft 418 kts 227°
2026-05-06 09:17 46.66313 6.76428 30746 ft 416 kts 227°
2026-05-06 09:17 46.64457 6.73215 31134 ft 413 kts 225°
2026-05-06 09:17 46.62536 6.70118 31523 ft 411 kts 224°
2026-05-06 09:17 46.60578 6.67106 31891 ft 409 kts 223°
2026-05-06 09:18 46.58633 6.64175 32250 ft 407 kts 223°
2026-05-06 09:18 46.56667 6.61218 32632 ft 406 kts 223°
2026-05-06 09:18 46.54714 6.58256 32833 ft 405 kts 224°
2026-05-06 09:19 46.50940 6.52443 32903 ft 391 kts 224°
2026-05-06 09:19 46.47145 6.46578 32872 ft 405 kts 224°
2026-05-06 09:20 46.43219 6.40524 32868 ft 419 kts 224°
2026-05-06 09:20 46.39185 6.34321 32876 ft 425 kts 224°
2026-05-06 09:21 46.35129 6.28093 32888 ft 425 kts 224°
2026-05-06 09:21 46.31070 6.21877 32890 ft 425 kts 224°
2026-05-06 09:22 46.26825 6.15976 32885 ft 422 kts 213°
2026-05-06 09:22 46.21542 6.12464 32879 ft 420 kts 194°
2026-05-06 09:23 46.15766 6.11081 32873 ft 421 kts 190°
2026-05-06 09:23 46.09966 6.09785 32873 ft 422 kts 190°
2026-05-06 09:24 46.04158 6.08499 32900 ft 423 kts 190°
2026-05-06 09:24 45.98342 6.07221 32890 ft 422 kts 191°
2026-05-06 09:25 45.93520 6.06157 32911 ft 422 kts 191°
2026-05-06 09:25 45.87714 6.04874 32923 ft 422 kts 191°
2026-05-06 09:26 45.80969 6.03391 32923 ft 421 kts 191°
2026-05-06 09:26 45.76117 6.02323 32928 ft 420 kts 191°
2026-05-06 09:27 45.70347 6.01041 32938 ft 420 kts 191°
2026-05-06 09:27 45.64578 5.99755 32939 ft 419 kts 192°
2026-05-06 09:28 45.58842 5.98494 32933 ft 419 kts 192°
2026-05-06 09:28 45.53079 5.97241 32939 ft 418 kts 192°
2026-05-06 09:29 45.47325 5.95984 32937 ft 418 kts 192°
2026-05-06 09:29 45.41645 5.94361 32926 ft 416 kts 196°
2026-05-06 09:30 45.36011 5.92483 32930 ft 416 kts 196°
2026-05-06 09:30 45.30380 5.90635 32931 ft 415 kts 196°
2026-05-06 09:31 45.24734 5.88866 32932 ft 415 kts 195°
2026-05-06 09:31 45.19097 5.87135 32925 ft 415 kts 195°
2026-05-06 09:32 45.13457 5.85398 32921 ft 415 kts 195°
2026-05-06 09:32 45.07823 5.83661 32914 ft 414 kts 195°
2026-05-06 09:33 45.02185 5.81922 32896 ft 414 kts 195°
2026-05-06 09:33 44.96555 5.80184 32905 ft 414 kts 196°
2026-05-06 09:34 44.90969 5.78467 32911 ft 413 kts 196°
2026-05-06 09:34 44.85349 5.76743 32916 ft 413 kts 196°
2026-05-06 09:35 44.79735 5.75029 32904 ft 412 kts 196°
2026-05-06 09:35 44.74140 5.73312 32909 ft 411 kts 196°
2026-05-06 09:36 44.68551 5.71600 32905 ft 411 kts 196°
2026-05-06 09:36 44.62953 5.69900 32928 ft 412 kts 196°
2026-05-06 09:37 44.57346 5.68213 32913 ft 412 kts 196°
2026-05-06 09:37 44.51738 5.66512 32898 ft 412 kts 196°
2026-05-06 09:38 44.46127 5.64804 32882 ft 413 kts 197°
2026-05-06 09:38 44.40507 5.63107 32896 ft 414 kts 196°
2026-05-06 09:39 44.35052 5.60738 32907 ft 410 kts 205°
2026-05-06 09:39 44.29742 5.57816 32902 ft 410 kts 205°
2026-05-06 09:40 44.24425 5.54907 32896 ft 410 kts 205°
2026-05-06 09:40 44.16459 5.50564 32917 ft 409 kts 205°
2026-05-06 09:41 44.11153 5.47683 32935 ft 410 kts 205°
2026-05-06 09:41 44.05846 5.44796 32938 ft 409 kts 205°
2026-05-06 09:42 44.00553 5.41924 32941 ft 408 kts 205°
2026-05-06 09:42 43.95266 5.39063 32945 ft 408 kts 205°
2026-05-06 09:43 43.89987 5.36206 32919 ft 407 kts 205°
2026-05-06 09:43 43.84723 5.33357 32937 ft 405 kts 205°
2026-05-06 09:44 43.79497 5.30534 32953 ft 406 kts 205°
2026-05-06 09:44 43.74226 5.27696 32947 ft 407 kts 205°
2026-05-06 09:45 43.68948 5.24873 32919 ft 406 kts 205°
2026-05-06 09:45 43.63676 5.22053 32935 ft 406 kts 205°
2026-05-06 09:46 43.58414 5.19233 32944 ft 405 kts 205°
2026-05-06 09:46 43.53157 5.16421 32947 ft 405 kts 205°
2026-05-06 09:47 43.47903 5.13622 32936 ft 404 kts 205°
2026-05-06 09:47 43.42657 5.10833 32942 ft 404 kts 205°
2026-05-06 09:48 43.37573 5.07680 32944 ft 398 kts 216°
2026-05-06 09:48 43.33016 5.03362 32946 ft 398 kts 217°
2026-05-06 09:49 43.28446 4.99066 32923 ft 398 kts 217°
2026-05-06 09:49 43.23875 4.94788 32977 ft 397 kts 217°
2026-05-06 09:50 43.19307 4.90509 32969 ft 398 kts 217°
2026-05-06 09:50 43.14739 4.86228 32967 ft 398 kts 217°
2026-05-06 09:51 43.10267 4.82038 32934 ft 397 kts 217°
2026-05-06 09:51 43.05692 4.77783 32940 ft 398 kts 214°
2026-05-06 09:52 43.00887 4.74107 32940 ft 399 kts 212°
2026-05-06 09:52 42.96032 4.70427 32951 ft 399 kts 212°
2026-05-06 09:53 42.91178 4.66746 32929 ft 399 kts 212°
2026-05-06 09:53 42.86313 4.63076 32937 ft 400 kts 212°
2026-05-06 09:54 42.81445 4.59397 32952 ft 400 kts 212°
2026-05-06 09:54 42.76568 4.55726 32989 ft 401 kts 213°
2026-05-06 09:55 42.71688 4.52055 32985 ft 401 kts 212°
2026-05-06 09:55 42.66803 4.48396 32980 ft 401 kts 212°
2026-05-06 09:56 42.61919 4.44736 32977 ft 401 kts 212°
2026-05-06 09:56 42.57034 4.41081 32981 ft 401 kts 212°
2026-05-06 09:57 42.52150 4.37425 32942 ft 401 kts 212°
2026-05-06 09:57 42.47259 4.33782 32954 ft 401 kts 212°
2026-05-06 09:58 42.42364 4.30148 32964 ft 401 kts 212°
2026-05-06 09:58 42.37469 4.26520 32966 ft 401 kts 212°
2026-05-06 09:59 42.32567 4.22897 32936 ft 402 kts 212°
2026-05-06 09:59 42.27669 4.19269 32965 ft 401 kts 212°
2026-05-06 10:00 42.22790 4.15658 32967 ft 403 kts 212°
2026-05-06 10:00 42.17865 4.12035 32969 ft 403 kts 212°
2026-05-06 10:01 42.12933 4.08412 32979 ft 404 kts 212°
2026-05-06 10:01 42.07993 4.04778 32956 ft 405 kts 212°
2026-05-06 10:02 42.03042 4.01146 32965 ft 406 kts 212°
2026-05-06 10:02 41.98086 3.97516 32981 ft 405 kts 212°
2026-05-06 10:03 41.93083 3.94000 32982 ft 409 kts 206°
2026-05-06 10:03 41.87489 3.92225 32955 ft 417 kts 195°
2026-05-06 10:04 41.81772 3.90912 32965 ft 417 kts 195°
2026-05-06 10:04 41.76067 3.89596 32972 ft 416 kts 195°
2026-05-06 10:05 41.70359 3.88278 32948 ft 416 kts 195°
2026-05-06 10:05 41.64653 3.86966 32965 ft 416 kts 195°
2026-05-06 10:06 41.58950 3.85663 32971 ft 415 kts 195°
2026-05-06 10:06 41.53250 3.84357 32975 ft 415 kts 196°
2026-05-06 10:07 41.47604 3.83061 32963 ft 415 kts 195°
2026-05-06 10:07 41.41911 3.81754 32974 ft 415 kts 196°
2026-05-06 10:08 41.36217 3.80453 33002 ft 415 kts 196°
2026-05-06 10:08 41.30518 3.79153 32991 ft 416 kts 196°
2026-05-06 10:09 41.24805 3.77855 32969 ft 417 kts 196°
2026-05-06 10:09 41.19086 3.76560 32976 ft 417 kts 196°
2026-05-06 10:10 41.13497 3.74780 32980 ft 408 kts 206°
2026-05-06 10:10 41.08205 3.72034 32981 ft 408 kts 206°
2026-05-06 10:11 41.02905 3.69304 32962 ft 409 kts 206°
2026-05-06 10:11 40.97598 3.66577 32966 ft 409 kts 206°
2026-05-06 10:12 40.93175 3.64304 32561 ft 410 kts 206°
2026-05-06 10:12 40.90513 3.62940 32305 ft 411 kts 206°
2026-05-06 10:12 40.87847 3.61577 32037 ft 411 kts 206°
2026-05-06 10:13 40.85178 3.60211 31763 ft 412 kts 206°
2026-05-06 10:13 40.82504 3.58842 31503 ft 413 kts 206°
2026-05-06 10:13 40.79826 3.57472 31251 ft 414 kts 206°
2026-05-06 10:13 40.77122 3.56089 30895 ft 415 kts 206°
2026-05-06 10:14 40.74430 3.54714 30368 ft 416 kts 206°
2026-05-06 10:14 40.71725 3.53335 29815 ft 417 kts 206°
2026-05-06 10:14 40.69005 3.51947 29269 ft 419 kts 205°
2026-05-06 10:14 40.66277 3.50554 28742 ft 421 kts 205°
2026-05-06 10:15 40.63530 3.49156 28219 ft 423 kts 205°
2026-05-06 10:15 40.60782 3.47761 27688 ft 425 kts 205°
2026-05-06 10:15 40.58014 3.46357 27161 ft 427 kts 205°
2026-05-06 10:15 40.55240 3.44951 26632 ft 426 kts 205°
2026-05-06 10:16 40.52487 3.43557 26106 ft 422 kts 205°
2026-05-06 10:16 40.50676 3.42643 25772 ft 420 kts 205°